Moore, Oklahoma, United States
Lat: 35.34N, Lon: 97.49W
Wx Zone: OKZ029
Local Info
Past Weather Observations for Tuesday, July 28, 2015

NOTE: This archive is for the closest National Weather Service station to Moore. Information may differ from the station used for current weather conditions.

Click here for Long-term Archive

Time Weather Temperature Dewpoint Humidity Pressure Winds Precip Visibility
23:52
Partly Cloudy
73°F / 23°C 68°F / 20°C 83% 30.01 in
(1016 mb)
SSE 5.8 mph
(SSE 9 kph)
- 10SM
22:52
Partly Cloudy
73°F / 23°C 68°F / 20°C 83% 29.98 in
(1015 mb)
S 5.8 mph
(S 9 kph)
- 10SM
21:52
Partly Cloudy
75°F / 24°C 68°F / 20°C 78% 29.98 in
(1015 mb)
S 5.8 mph
(S 9 kph)
- 10SM
20:52
Partly Cloudy
79°F / 26°C 68°F / 20°C 70% 29.95 in
(1014 mb)
S 4.6 mph
(S 7 kph)
- 10SM
19:52
Partly Cloudy
81°F / 27°C 66°F / 19°C 62% 29.92 in
(1013 mb)
S 6.9 mph
(S 11 kph)
- 10SM
18:52
Partly Cloudy
88°F / 31°C 70°F / 21°C 55% 29.92 in
(1013 mb)
S 9.2 mph
(S 15 kph)
- 10SM
17:52
Clear
91°F / 33°C 68°F / 20°C 46% 29.92 in
(1013 mb)
S 10.4 mph
(S 17 kph)
- 10SM
16:52
Clear
93°F / 34°C 66°F / 19°C 41% 29.92 in
(1013 mb)
S 17.3 mph
(S 28 kph)
- 10SM
15:52
Partly Cloudy
93°F / 34°C 70°F / 21°C 47% 29.92 in
(1013 mb)
S 15 mph
(S 24 kph)
- 10SM
14:52
Partly Cloudy
93°F / 34°C 70°F / 21°C 47% 29.95 in
(1014 mb)
SSE 17.3 mph
(SSE 28 kph)
- 10SM
13:52
Partly Cloudy
93°F / 34°C 73°F / 23°C 53% 29.95 in
(1014 mb)
S 17.3 mph
(S 28 kph)
- 10SM
12:52
Clear
93°F / 34°C 72°F / 22°C 49% 29.95 in
(1014 mb)
S 17.3 mph
(S 28 kph)
- 10SM
11:52
Clear
91°F / 33°C 72°F / 22°C 52% 29.95 in
(1014 mb)
S 19.6 mph
(S 32 kph)
- 10SM
10:52
Clear
91°F / 33°C 72°F / 22°C 52% 29.95 in
(1014 mb)
S 17.3 mph
(S 28 kph)
- 10SM
09:52
Clear
90°F / 32°C 72°F / 22°C 55% 29.95 in
(1014 mb)
S 18.4 mph
(S 30 kph)
- 10SM
08:52
Clear
86°F / 30°C 70°F / 21°C 59% 29.95 in
(1014 mb)
S 17.3 mph
(S 28 kph)
- 10SM
07:52
Clear
82°F / 28°C 70°F / 21°C 66% 29.95 in
(1014 mb)
SSE 13.8 mph
(SSE 22 kph)
- 10SM
06:52
Clear
77°F / 25°C 70°F / 21°C 79% 29.95 in
(1014 mb)
S 9.2 mph
(S 15 kph)
- 10SM
05:52
Clear
73°F / 23°C 70°F / 21°C 89% 29.95 in
(1014 mb)
S 6.9 mph
(S 11 kph)
- 10SM
04:52
Clear
75°F / 24°C 68°F / 20°C 78% 29.92 in
(1013 mb)
S 8.1 mph
(S 13 kph)
- 10SM
03:52
Clear
75°F / 24°C 70°F / 21°C 83% 29.92 in
(1013 mb)
SSE 6.9 mph
(SSE 11 kph)
- 10SM
02:52
Clear
77°F / 25°C 70°F / 21°C 79% 29.89 in
(1012 mb)
S 9.2 mph
(S 15 kph)
- 10SM
01:52
Clear
77°F / 25°C 70°F / 21°C 79% 29.92 in
(1013 mb)
S 9.2 mph
(S 15 kph)
- 10SM
00:52
Clear
79°F / 26°C 72°F / 22°C 79% 29.92 in
(1013 mb)
S 10.4 mph
(S 17 kph)
- 10SM
Time Weather Temperature Dewpoint Humidity Pressure Winds Precip Visibility


Weather for websites

WeatherForYou.com, LLC is not responsible for any damages or problems caused by this service. Current weather conditions are obtained from the closest station including government and personal stations which may have varying degrees of accuracy. Weather forecasts are derived from the NOAA NDFD. Like all things, this site belongs to Jesus Christ... He just trusts us to maintain it. If you have any questions or comments email webmaster@weatherforyou.com

Copyright © 2015, WeatherForYou.com LLC. All rights reserved.